Flag for Brazil Weather past 2 weeks in Boa Vista, Roraima, Brazil

Now
82 °F

Clear.


Feels Like: 86 °F
Forecast: 75 / 87 °F
Wind: 5 mph from Southeast

Location: Boa Vista Aeropor-To

Current Time: Jul 7, 2015 at 11:19:32 PM

Latest Report: Jul 7, 2015 at 11:00 PM


Visibility: 10 mi

Pressure: 29.92 "Hg

Humidity: 66%

Dew point: 70 °F

Location of Boa VistaLocation

Historic Weather in Boa Vista — Graph

°F

Boa Vista temperature yesterday

Maximum temperature yesterday: 90 °F (at 2:00 PM)
Minimum temperature yesterday: 75 °F (at 6:00 AM)
Average temperature yesterday: 83 °F

Past Weeks' High & Low Weather Summary

 TemperatureHumidityPressure
High90 °F (Jun 23, 3:00 PM)100% (Jun 25, 12:00 PM)30.07 "Hg (Jun 25, 12:00 PM)
Low37 °F (Jun 25, 12:00 PM)46% (Jun 23, 3:00 PM)29.77 "Hg (Jul 4, 5:00 PM)
Average79 °F75%29.94 "Hg
* Reported Jun 22 10:00 PM — Jul 7 10:00 PM, Boa Vista, Weather by CustomWeather, © 2015

Note: Actual official high and low records may vary slightly from our data, if they occured in-between our weather recording intervals... More about our weather records

Advertising

Boa Vista weather history for previous 24 hours

 ConditionsComfort  
Time TempWeatherWind HumidityBarometerVisibility
10:00 PM
Tue, Jul 7
82 °FClear.3 mph70%29.89 "Hg10 mi
9:00 PM84 °FClear.3 mph62%29.89 "Hg10 mi
8:00 PM86 °FClear.2 mph55%29.86 "Hg10 mi
7:00 PM88 °FClear.2 mph52%29.83 "Hg10 mi
6:00 PM90 °FPassing clouds.8 mph46%29.83 "HgN/A
5:00 PM90 °FScattered clouds.1 mph46%29.83 "HgN/A
4:00 PM90 °FScattered clouds.8 mph46%29.83 "HgN/A
3:00 PM90 °FBroken clouds.7 mph46%29.83 "HgN/A
2:00 PM90 °FBroken clouds.6 mph49%29.86 "HgN/A
1:00 PM90 °FBroken clouds.8 mph49%29.89 "HgN/A
12:00 PM86 °FBroken clouds.7 mph55%29.92 "HgN/A
11:00 AM86 °FScattered clouds.12 mph59%29.92 "HgN/A
10:00 AM84 °FScattered clouds.8 mph66%29.95 "HgN/A
9:00 AM81 °FScattered clouds.8 mph74%29.95 "HgN/A
8:00 AM77 °FScattered clouds.8 mph79%29.92 "HgN/A
7:00 AM77 °FScattered clouds.3 mph79%29.92 "HgN/A
6:00 AM75 °FScattered clouds.2 mph78%29.89 "HgN/A
5:00 AM75 °FPassing clouds.2 mph78%29.89 "HgN/A
4:00 AM75 °FClear.3 mph78%29.89 "Hg10 mi
3:00 AM77 °FPassing clouds.2 mph74%29.86 "HgN/A
2:00 AM77 °FPassing clouds.No wind74%29.89 "HgN/A
1:00 AM77 °FPassing clouds.3 mph74%29.89 "HgN/A
12:00 AM81 °FClear.3 mph66%29.92 "Hg10 mi
11:00 PM
Mon, Jul 6
81 °FClear.3 mph66%29.92 "Hg10 mi
Weather by CustomWeather, © 2015

See weather overviewHow to use our weather pages